Location: Newark
(44.6028°N, 124.0883°W)
Time: 21:50:16
(UTC+00:00)

Envisat - Visible Passes

Search period start: 23 September 2020 00:00
Search period end: 03 October 2020 00:00
Orbit: 764 x 766 km, 98.1° (Epoch: 23 September)

Date Brightness Start Highest point End Pass type
(mag) Time Alt. Az. Time Alt. Az. Time Alt. Az.
23 Sep 6.0 02:39:54 10° SW 02:43:36 20° W 02:47:20 10° NW visible
23 Sep 6.1 13:07:41 10° NE 13:10:47 16° E 13:13:52 10° SE visible
25 Sep 6.6 03:07:43 10° WSW 03:09:21 11° W 03:11:01 10° WNW visible
25 Sep 5.5 13:32:10 10° NE 13:36:29 27° E 13:40:45 10° SSE visible
26 Sep 6.4 12:57:08 10° ENE 12:59:16 13° E 13:01:24 10° ESE visible
28 Sep 6.3 02:55:03 10° WSW 02:57:51 15° W 03:00:40 10° NW visible
28 Sep 5.9 13:21:07 10° NE 13:25:01 22° E 13:28:54 10° SE visible
01 Oct 6.1 02:42:51 10° SW 02:46:22 19° W 02:49:53 10° NW visible
01 Oct 6.1 13:10:12 10° NE 13:13:32 17° E 13:16:52 10° SE visible
